Wind_Speed
61 66 66 68 66 67 77 81 78 77 80 78 79 89 93 94 91 90 91 92 91 88 77 66 65 62 60 55 53 51 51 51 51 51 52 52 59 63
67 67 62 68 72 80 83 79 76 79 78 83 93 94 91 88 88 89 90 89 84 72 63 63 60 61 54 52 48 48 49 49 50 49 48 49 50 55
71 66 68 70 72 72 73 76 78 76 87 90 92 89 88 88 89 90 86 83 74 63 61 60 58 55 50 48 46 46 47 47 47 46 44 43 44 47
63 73 71 75 73 73 76 77 84 89 91 90 86 85 86 87 88 87 80 67 60 60 61 59 58 49 48 46 45 43 43 42 40 39 39 38 38 40
65 73 74 74 73 74 78 81 85 87 86 85 84 86 87 87 85 79 70 60 58 60 58 58 53 44 45 44 42 41 39 39 37 34 34 34 34 35
67 72 73 73 74 77 80 83 82 83 84 85 86 87 87 81 75 68 61 59 59 58 59 57 48 43 43 42 40 39 38 37 35 32 31 31 31 31
69 70 70 72 76 78 78 78 81 84 86 87 87 84 80 70 65 63 63 60 58 59 59 51 45 42 41 40 40 36 33 33 33 31 29 29 28 29
66 68 70 70 72 75 77 80 83 85 85 83 80 75 68 65 62 64 63 61 60 58 56 45 43 40 39 38 39 37 34 31 29 30 29 28 28 29
63 65 68 72 75 78 80 82 84 85 85 79 74 67 67 64 66 65 64 63 60 53 50 41 40 38 38 37 38 36 33 30 29 28 28 29 29 30
67 69 74 77 80 82 84 87 87 86 81 77 71 67 67 67 66 66 64 60 53 46 45 39 37 36 37 37 38 34 34 29 29 27 28 29 29 29
70 74 80 83 85 86 87 87 85 82 75 75 73 68 64 61 60 61 57 54 45 40 38 37 35 35 36 36 36 35 32 28 27 26 27 28 30 30
75 79 85 87 86 86 87 86 84 78 74 72 70 64 60 57 55 54 51 46 41 35 35 34 33 34 34 35 32 33 31 30 25 24 25 28 29 28
80 85 89 90 90 90 88 84 79 74 72 71 66 64 61 56 50 46 45 40 37 33 33 31 31 32 34 31 30 31 29 27 24 21 22 23 25 26
86 90 93 93 92 88 84 77 73 71 69 63 60 56 56 50 47 45 41 34 31 30 30 30 29 31 30 30 29 29 29 25 19 20 19 19 20 21
90 93 93 92 89 85 77 72 69 65 60 54 49 46 45 44 41 39 36 32 29 27 28 27 27 28 29 28 26 27 25 22 17 18 15 13 8 2
93 94 92 90 87 81 74 69 63 59 52 46 41 40 39 36 37 33 32 29 26 27 26 25 26 26 26 26 25 25 22 17 17 13 9 6 7 2
97 94 93 90 84 76 70 64 58 53 44 37 37 36 33 33 33 28 29 27 25 25 24 24 24 24 24 24 23 22 19 16 15 10 8 8 9 6
92 91 87 82 76 71 66 58 52 46 39 36 35 32 30 33 30 27 29 25 23 23 22 23 23 23 23 21 21 21 16 15 14 10 11 12 10 9
89 85 80 75 70 68 61 54 47 42 38 33 31 28 30 32 28 27 27 24 22 23 21 21 22 22 21 20 18 20 15 14 14 14 15 17 13 11
83 78 73 69 68 65 57 51 42 38 34 28 27 28 28 28 27 25 24 22 22 22 20 21 21 21 20 19 17 18 15 14 14 16 17 19 17 15
77 72 67 67 68 63 54 44 37 32 26 30 28 26 27 28 25 24 22 22 22 21 20 20 20 20 18 17 16 16 15 14 14 17 19 21 23 19
72 66 66 68 68 58 48 39 33 33 33 31 29 29 30 29 26 23 22 23 23 21 19 20 19 19 17 16 15 15 15 14 14 15 19 22 25 25
65 64 67 69 62 52 43 36 32 33 36 34 31 30 30 29 25 22 23 24 24 22 19 19 19 18 17 15 14 14 14 13 14 13 16 20 24 28
Wind_Direction
300 300 298 299 292 296 298 304 304 305 302 300 300 303 308 308 308 310 309 309 311 312 310 306 306 306 304 297 295 291 287 284 279 274 270 265 256 252
295 298 294 292 290 292 297 300 301 300 302 300 303 307 309 309 309 309 310 311 312 310 307 307 308 308 302 299 296 292 289 286 283 278 273 267 261 254
295 297 297 297 296 298 300 300 299 299 302 304 307 308 307 307 307 308 310 312 311 308 307 308 310 306 301 298 294 292 289 287 284 281 277 271 265 258
286 297 298 300 301 301 300 300 301 302 305 306 306 306 306 307 308 309 312 309 308 307 309 310 310 304 300 297 297 295 293 289 284 280 275 271 266 260
291 294 294 298 300 298 299 300 301 303 305 304 305 305 306 307 308 310 309 307 308 308 308 310 306 302 297 297 298 296 294 290 286 280 274 269 262 257
292 295 297 299 301 302 302 303 304 304 304 305 305 306 306 308 308 307 307 308 309 309 311 310 304 301 299 299 299 297 296 291 288 280 272 265 261 255
296 298 300 302 303 303 304 305 305 306 306 305 305 306 308 307 306 307 307 309 309 309 309 306 301 300 299 300 301 297 293 295 290 281 272 267 261 255
301 304 304 305 306 307 306 306 306 305 304 305 306 307 305 304 303 305 305 306 307 307 306 302 299 299 298 299 302 303 299 297 289 280 272 266 261 257
304 306 309 310 310 309 309 308 305 304 304 304 305 303 300 302 302 302 302 304 305 304 300 298 295 297 297 299 301 302 300 296 290 279 268 264 260 257
306 310 312 313 313 310 308 306 306 304 303 302 301 300 299 300 299 298 300 302 303 299 295 295 293 295 295 298 300 302 302 299 292 279 270 265 262 259
309 313 314 315 313 310 308 306 305 305 304 301 301 301 300 298 297 298 300 300 300 293 290 293 292 292 294 299 300 302 301 299 290 277 271 268 268 267
312 314 315 314 312 309 307 307 306 306 301 299 299 299 298 299 298 296 297 297 295 290 288 291 290 292 295 299 299 301 301 298 289 276 271 270 272 272
313 314 315 314 312 311 310 308 306 303 300 297 295 296 296 296 293 293 294 294 290 287 286 289 289 293 298 297 300 301 302 298 288 275 271 275 275 273
312 314 315 314 312 311 310 308 304 302 300 296 292 291 293 295 293 293 292 284 276 279 282 285 287 294 296 300 303 303 303 296 287 284 286 282 282 286
313 314 314 313 312 312 310 308 305 303 300 294 289 289 287 288 287 291 287 281 277 279 280 282 288 294 298 302 306 303 302 292 289 288 288 291 287 172
312 313 313 313 314 313 311 309 305 303 300 293 289 287 285 285 286 287 278 273 273 276 277 281 289 294 299 302 304 304 299 290 291 280 275 244 193 321
313 313 313 314 314 313 311 309 305 303 297 290 285 284 284 285 289 283 274 270 271 271 273 281 289 295 300 301 301 306 295 290 284 268 225 218 206 270
313 314 315 314 314 314 312 308 305 301 294 287 282 280 279 282 285 278 270 266 266 267 271 281 289 295 299 300 298 306 290 285 274 245 225 209 224 263
315 315 314 314 315 314 311 307 303 296 291 286 280 276 275 278 279 273 270 262 258 262 269 281 288 293 298 300 297 305 290 282 266 239 225 215 220 246
315 314 313 314 316 315 310 305 298 291 287 279 272 270 266 270 276 269 266 259 251 258 268 280 287 291 295 297 295 304 292 277 266 241 227 218 223 235
314 313 312 314 317 314 309 303 292 282 272 270 269 265 265 272 269 268 260 251 246 253 266 278 284 287 291 294 292 302 296 275 272 247 231 226 223 233
314 313 313 315 316 312 306 299 286 270 267 265 264 261 262 269 270 264 254 244 241 249 261 275 280 284 287 290 288 295 306 277 270 260 241 232 230 231
313 312 314 315 313 309 303 297 282 266 259 259 258 256 262 264 266 258 245 238 239 244 256 269 277 280 282 285 284 292 303 294 269 268 253 239 234 234
Height
5693 5686 5678 5671 5664 5657 5649 5639 5631 5625 5617 5607 5597 5587 5576 5569 5561 5551 5543 5531 5521 5509 5499 5489 5479 5471 5460 5452 5447 5443 5439 5436 5433 5431 5431 5433 5436 5440
5680 5673 5667 5660 5652 5643 5635 5626 5617 5609 5602 5590 5579 5567 5558 5549 5539 5531 5520 5510 5500 5490 5481 5472 5463 5454 5445 5439 5434 5428 5424 5421 5417 5416 5415 5416 5418 5422
5666 5660 5653 5645 5637 5628 5619 5610 5602 5591 5583 5576 5560 5550 5539 5529 5521 5512 5502 5492 5480 5471 5464 5457 5450 5440 5433 5427 5421 5417 5412 5408 5405 5402 5402 5402 5403 5405
5651 5645 5637 5628 5620 5612 5603 5594 5585 5573 5563 5556 5548 5535 5523 5510 5501 5491 5484 5474 5465 5457 5449 5442 5435 5428 5421 5415 5410 5405 5400 5396 5393 5390 5389 5390 5390 5392
5639 5632 5623 5614 5605 5596 5587 5578 5567 5557 5546 5536 5529 5516 5504 5492 5482 5473 5466 5459 5452 5444 5436 5430 5422 5417 5410 5405 5400 5394 5390 5386 5382 5379 5378 5378 5379 5381
5625 5617 5608 5599 5590 5580 5570 5560 5550 5538 5528 5517 5506 5496 5485 5475 5463 5456 5451 5444 5437 5430 5422 5415 5409 5405 5399 5395 5391 5385 5380 5376 5372 5370 5369 5368 5369 5371
5609 5601 5593 5584 5574 5564 5553 5543 5531 5518 5505 5494 5486 5475 5467 5457 5447 5440 5433 5429 5425 5415 5409 5403 5398 5394 5389 5384 5379 5375 5372 5367 5363 5361 5361 5361 5361 5362
5594 5585 5576 5567 5557 5547 5536 5523 5512 5501 5490 5476 5465 5456 5449 5442 5435 5427 5420 5415 5411 5402 5395 5392 5386 5383 5378 5374 5369 5365 5362 5358 5355 5353 5352 5352 5353 5354
5579 5570 5560 5549 5538 5527 5518 5510 5497 5483 5469 5461 5453 5444 5433 5427 5419 5413 5406 5400 5395 5390 5382 5381 5375 5373 5369 5365 5360 5357 5353 5349 5346 5345 5344 5344 5345 5346
5563 5553 5543 5532 5520 5507 5496 5483 5474 5465 5455 5445 5436 5429 5420 5413 5404 5397 5392 5387 5382 5376 5370 5369 5366 5363 5360 5356 5351 5348 5344 5341 5338 5336 5335 5335 5336 5337
5546 5536 5524 5513 5501 5488 5474 5463 5453 5444 5431 5417 5411 5408 5403 5398 5390 5381 5377 5371 5370 5365 5360 5358 5357 5354 5350 5347 5342 5338 5336 5333 5330 5328 5327 5326 5326 5328
5530 5518 5506 5492 5480 5468 5453 5439 5427 5423 5411 5402 5392 5389 5386 5380 5375 5368 5364 5359 5356 5355 5351 5350 5347 5344 5343 5337 5334 5330 5327 5324 5323 5320 5319 5318 5318 5318
5510 5500 5487 5472 5458 5446 5433 5420 5408 5399 5392 5382 5377 5370 5366 5363 5361 5356 5351 5347 5345 5344 5342 5341 5339 5336 5332 5330 5327 5322 5319 5316 5314 5313 5311 5311 5310 5309
5488 5477 5464 5452 5438 5425 5410 5399 5388 5378 5370 5364 5358 5356 5350 5347 5343 5340 5340 5339 5337 5336 5334 5332 5331 5328 5325 5322 5319 5315 5311 5309 5307 5305 5304 5304 5302 5301
5464 5453 5440 5427 5414 5402 5391 5379 5367 5359 5351 5345 5342 5341 5337 5334 5332 5329 5327 5326 5326 5326 5325 5325 5323 5321 5317 5314 5312 5307 5305 5302 5301 5299 5298 5297 5296 5295
5446 5434 5419 5405 5391 5379 5368 5358 5349 5341 5334 5330 5328 5327 5325 5323 5321 5319 5318 5317 5318 5318 5317 5317 5315 5313 5311 5307 5305 5301 5298 5297 5295 5294 5293 5293 5293 5293
5425 5411 5397 5383 5372 5360 5350 5340 5332 5325 5320 5317 5315 5314 5312 5311 5310 5309 5308 5308 5309 5310 5310 5310 5309 5307 5304 5301 5299 5296 5293 5291 5290 5290 5290 5290 5290 5291
5400 5388 5377 5363 5350 5340 5332 5324 5316 5311 5307 5305 5303 5303 5302 5301 5301 5300 5300 5300 5301 5302 5303 5303 5301 5300 5298 5296 5293 5291 5288 5287 5286 5286 5287 5287 5288 5288
5377 5365 5354 5344 5335 5324 5315 5307 5302 5298 5295 5293 5292 5292 5293 5292 5292 5292 5292 5293 5294 5295 5296 5296 5295 5294 5292 5290 5289 5286 5284 5283 5282 5283 5283 5285 5286 5286
5357 5346 5336 5326 5317 5308 5299 5292 5288 5285 5283 5283 5283 5283 5284 5284 5283 5284 5284 5285 5287 5289 5290 5290 5289 5288 5287 5286 5284 5281 5279 5279 5278 5279 5280 5281 5283 5283
5340 5329 5319 5310 5301 5292 5284 5278 5275 5273 5273 5273 5273 5274 5275 5275 5275 5276 5276 5278 5281 5283 5284 5284 5284 5283 5282 5281 5279 5278 5275 5274 5274 5274 5276 5277 5279 5280
5323 5313 5304 5295 5286 5277 5270 5266 5263 5261 5261 5262 5263 5265 5266 5267 5267 5268 5269 5271 5274 5276 5278 5279 5278 5278 5277 5276 5275 5274 5272 5270 5270 5270 5271 5273 5275 5276
5307 5298 5288 5279 5269 5262 5257 5254 5251 5250 5250 5251 5253 5255 5257 5258 5259 5260 5262 5264 5268 5270 5272 5273 5273 5273 5272 5272 5271 5270 5269 5267 5266 5266 5266 5267 5269 5272